| time (UTC) | temp F | wind direction | speed MPH | gust MPH | rain 1hr in | rain 24hr in | rain mn in | humidity % | barometer mb |
| 20260510074031 | 67 | 0 | 0.0 | 2.0 | 0.00 | 0.00 | 0.00 | 72 | 1013.9 |
| 20260510073532 | 67 | 0 | 0.0 | 2.0 | 0.00 | 0.00 | 0.00 | 72 | 1013.9 |
| 20260510073047 | 67 | 240 | 0.0 | 2.0 | 0.00 | 0.00 | 0.00 | 72 | 1014.0 |
| 20260510072531 | 67 | 0 | 0.0 | 3.0 | 0.00 | 0.00 | 0.00 | 72 | 1014.0 |
| 20260510072030 | 67 | 258 | 0.0 | 3.0 | 0.00 | 0.00 | 0.00 | 72 | 1014.0 |
| 20260510071537 | 68 | 0 | 0.0 | 3.0 | 0.00 | 0.00 | 0.00 | 71 | 1014.0 |
| 20260510071031 | 68 | 236 | 0.0 | 3.0 | 0.00 | 0.00 | 0.00 | 71 | 1014.0 |
| 20260510070531 | 68 | 0 | 0.0 | 3.0 | 0.00 | 0.00 | 0.00 | 71 | 1013.9 |
| 20260510070043 | 68 | 0 | 0.0 | 2.0 | 0.00 | 0.00 | 0.00 | 71 | 1014.0 |
| 20260510065531 | 68 | 0 | 0.0 | 2.0 | 0.00 | 0.00 | 0.00 | 70 | 1014.1 |
| 20260510065029 | 68 | 0 | 0.0 | 2.0 | 0.00 | 0.00 | 0.00 | 71 | 1014.0 |
| 20260510064559 | 68 | 0 | 0.0 | 1.0 | 0.00 | 0.00 | 0.00 | 71 | 1013.9 |
| 20260510064031 | 68 | 0 | 0.0 | 1.0 | 0.00 | 0.00 | 0.00 | 71 | 1014.0 |
| 20260510063531 | 68 | 0 | 0.0 | 1.0 | 0.00 | 0.00 | 0.00 | 71 | 1013.9 |
| 20260510063041 | 68 | 241 | 0.0 | 2.0 | 0.00 | 0.00 | 0.00 | 71 | 1014.0 |
| 20260510062532 | 68 | 0 | 0.0 | 2.0 | 0.00 | 0.00 | 0.00 | 71 | 1014.0 |
| 20260510062035 | 68 | 0 | 0.0 | 1.0 | 0.00 | 0.00 | 0.00 | 71 | 1014.0 |
| 20260510061539 | 68 | 269 | 0.0 | 1.0 | 0.00 | 0.00 | 0.00 | 71 | 1014.0 |
| 20260510061031 | 68 | 240 | 0.0 | 1.0 | 0.00 | 0.00 | 0.00 | 70 | 1014.0 |
| 20260510060530 | 68 | 0 | 0.0 | 1.0 | 0.00 | 0.00 | 0.00 | 70 | 1014.0 |
| 20260510060038 | 69 | 0 | 0.0 | 1.0 | 0.00 | 0.00 | 0.00 | 69 | 1014.0 |
| 20260510055607 | 69 | 260 | 0.0 | 1.0 | 0.00 | 0.00 | 0.00 | 69 | 1014.0 |
| 20260510055034 | 69 | 0 | 0.0 | 1.0 | 0.00 | 0.00 | 0.00 | 69 | 1014.0 |
| 20260510054541 | 69 | 0 | 0.0 | 2.0 | 0.00 | 0.00 | 0.00 | 69 | 1014.0 |
| 20260510054030 | 69 | 254 | 0.0 | 2.0 | 0.00 | 0.00 | 0.00 | 68 | 1014.0 |
| 20260510053530 | 69 | 250 | 0.0 | 2.0 | 0.00 | 0.00 | 0.00 | 68 | 1014.0 |
| 20260510053045 | 69 | 0 | 0.0 | 2.0 | 0.00 | 0.00 | 0.00 | 68 | 1014.0 |
| 20260510052530 | 69 | 0 | 0.0 | 2.0 | 0.00 | 0.00 | 0.00 | 68 | 1013.9 |
| 20260510052031 | 69 | 0 | 0.0 | 2.0 | 0.00 | 0.00 | 0.00 | 68 | 1014.0 |
| 20260510051550 | 70 | 270 | 0.0 | 1.0 | 0.00 | 0.00 | 0.00 | 67 | 1014.0 |
| 20260510051034 | 70 | 0 | 0.0 | 2.0 | 0.00 | 0.00 | 0.00 | 68 | 1014.0 |
| 20260510050530 | 70 | 0 | 0.0 | 2.0 | 0.00 | 0.00 | 0.00 | 67 | 1013.9 |
| 20260510050042 | 70 | 244 | 0.0 | 1.0 | 0.00 | 0.00 | 0.00 | 67 | 1014.0 |
| 20260510045530 | 70 | 267 | 0.0 | 1.0 | 0.00 | 0.00 | 0.00 | 67 | 1013.9 |
| 20260510045032 | 70 | 0 | 0.0 | 1.0 | 0.00 | 0.00 | 0.00 | 66 | 1013.9 |
| 20260510044540 | 71 | 261 | 0.0 | 1.0 | 0.00 | 0.00 | 0.00 | 66 | 1013.9 |
| 20260510044031 | 71 | 0 | 0.0 | 1.0 | 0.00 | 0.00 | 0.00 | 65 | 1013.8 |
| 20260510043531 | 71 | 0 | 0.0 | 1.0 | 0.00 | 0.00 | 0.00 | 64 | 1013.8 |
| 20260510043041 | 71 | 0 | 0.0 | 1.0 | 0.00 | 0.00 | 0.00 | 64 | 1013.8 |
| 20260510042534 | 71 | 0 | 0.0 | 1.0 | 0.00 | 0.00 | 0.00 | 64 | 1013.8 |
| 20260510042031 | 72 | 0 | 0.0 | 3.0 | 0.00 | 0.00 | 0.00 | 63 | 1013.7 |
| 20260510041538 | 72 | 0 | 0.0 | 3.0 | 0.00 | 0.00 | 0.00 | 63 | 1013.6 |
| 20260510041031 | 72 | 0 | 0.0 | 2.0 | 0.00 | 0.00 | 0.00 | 62 | 1013.6 |
| 20260510040534 | 72 | 0 | 0.0 | 1.0 | 0.00 | 0.00 | 0.00 | 62 | 1013.6 |
| 20260510040047 | 72 | 0 | 0.0 | 3.0 | 0.00 | 0.00 | 0.00 | 62 | 1013.6 |
| 20260510035531 | 73 | 0 | 0.0 | 4.0 | 0.00 | 0.00 | 0.00 | 61 | 1013.5 |
| 20260510035030 | 73 | 0 | 0.0 | 5.0 | 0.00 | 0.00 | 0.00 | 60 | 1013.4 |
| 20260510034601 | 73 | 0 | 2.0 | 5.0 | 0.00 | 0.00 | 0.00 | 58 | 1013.4 |
| 20260510034031 | 74 | 329 | 2.0 | 5.0 | 0.00 | 0.00 | 0.00 | 57 | 1013.3 |
| 20260510033534 | 75 | 351 | 1.0 | 3.0 | 0.00 | 0.00 | 0.00 | 58 | 1013.2 |
| 20260510033045 | 75 | 327 | 0.0 | 1.0 | 0.00 | 0.00 | 0.00 | 52 | 1013.1 |
| 20260510032531 | 75 | 0 | 0.0 | 1.0 | 0.00 | 0.00 | 0.00 | 53 | 1013.1 |
| 20260510032032 | 76 | 0 | 0.0 | 1.0 | 0.00 | 0.00 | 0.00 | 53 | 1013.1 |
| 20260510031539 | 76 | 0 | 0.0 | 1.0 | 0.00 | 0.00 | 0.00 | 53 | 1013.1 |
| 20260510031031 | 76 | 0 | 0.0 | 2.0 | 0.00 | 0.00 | 0.00 | 54 | 1013.1 |
| 20260510030531 | 76 | 0 | 0.0 | 2.0 | 0.00 | 0.00 | 0.00 | 55 | 1013.1 |
| 20260510030038 | 76 | 5 | 1.0 | 4.0 | 0.00 | 0.00 | 0.00 | 54 | 1013.1 |
| 20260510025529 | 77 | 5 | 1.0 | 4.0 | 0.00 | 0.00 | 0.00 | 54 | 1013.0 |
| 20260510025031 | 77 | 30 | 1.0 | 4.0 | 0.00 | 0.00 | 0.00 | 54 | 1013.1 |
| 20260510024539 | 77 | 5 | 1.0 | 4.0 | 0.00 | 0.00 | 0.00 | 54 | 1013.0 |
| 20260510024033 | 77 | 11 | 1.0 | 4.0 | 0.00 | 0.00 | 0.00 | 54 | 1013.0 |
| 20260510023531 | 78 | 17 | 2.0 | 4.0 | 0.00 | 0.00 | 0.00 | 54 | 1012.9 |
| 20260510023033 | 78 | 325 | 2.0 | 4.0 | 0.00 | 0.00 | 0.00 | 54 | 1013.0 |
| 20260510022531 | 78 | 23 | 2.0 | 4.0 | 0.00 | 0.00 | 0.00 | 53 | 1012.9 |
| 20260510022031 | 78 | 342 | 2.0 | 4.0 | 0.00 | 0.00 | 0.00 | 52 | 1013.0 |
| 20260510021545 | 78 | 351 | 2.0 | 4.0 | 0.00 | 0.00 | 0.00 | 52 | 1012.9 |
| 20260510021030 | 79 | 342 | 0.0 | 3.0 | 0.00 | 0.00 | 0.00 | 51 | 1012.9 |
| 20260510020529 | 79 | 46 | 1.0 | 4.0 | 0.00 | 0.00 | 0.00 | 50 | 1012.9 |
| 20260510020039 | 79 | 343 | 2.0 | 4.0 | 0.00 | 0.00 | 0.00 | 50 | 1012.9 |
| 20260510015530 | 79 | 329 | 2.0 | 5.0 | 0.00 | 0.00 | 0.00 | 49 | 1012.9 |
| 20260510015031 | 80 | 320 | 3.0 | 5.0 | 0.00 | 0.00 | 0.00 | 48 | 1012.9 |
| 20260510014543 | 80 | 9 | 2.0 | 5.0 | 0.00 | 0.00 | 0.00 | 49 | 1013.0 |
| 20260510014031 | 80 | 329 | 1.0 | 4.0 | 0.00 | 0.00 | 0.00 | 49 | 1012.9 |
| 20260510013533 | 80 | 340 | 1.0 | 4.0 | 0.00 | 0.00 | 0.00 | 48 | 1013.0 |
| 20260510013036 | 81 | 336 | 2.0 | 4.0 | 0.00 | 0.00 | 0.00 | 48 | 1013.0 |
| 20260510012530 | 81 | 360 | 1.0 | 4.0 | 0.00 | 0.00 | 0.00 | 50 | 1013.0 |
| 20260510012030 | 81 | 5 | 2.0 | 5.0 | 0.00 | 0.00 | 0.00 | 50 | 1013.0 |
| 20260510011546 | 81 | 0 | 1.0 | 5.0 | 0.00 | 0.00 | 0.00 | 49 | 1013.0 |
| 20260510011032 | 81 | 301 | 1.0 | 4.0 | 0.00 | 0.00 | 0.00 | 48 | 1013.1 |
| 20260510010531 | 82 | 333 | 1.0 | 4.0 | 0.00 | 0.00 | 0.00 | 45 | 1013.1 |
| 20260510010047 | 82 | 55 | 1.0 | 4.0 | 0.00 | 0.00 | 0.00 | 46 | 1013.0 |
| 20260510005531 | 82 | 0 | 0.0 | 4.0 | 0.00 | 0.00 | 0.00 | 47 | 1013.0 |
| 20260510005029 | 82 | 349 | 1.0 | 4.0 | 0.00 | 0.00 | 0.00 | 44 | 1013.1 |
| 20260510004544 | 83 | 5 | 2.0 | 4.0 | 0.00 | 0.00 | 0.00 | 45 | 1013.1 |
| 20260510004030 | 83 | 0 | 0.0 | 5.0 | 0.00 | 0.00 | 0.00 | 48 | 1013.1 |
| 20260510003531 | 83 | 323 | 0.0 | 5.0 | 0.00 | 0.00 | 0.00 | 48 | 1013.1 |
| 20260510003046 | 83 | 352 | 1.0 | 5.0 | 0.00 | 0.00 | 0.00 | 46 | 1013.1 |
| 20260510002532 | 83 | 348 | 2.0 | 5.0 | 0.00 | 0.00 | 0.00 | 48 | 1013.2 |
| 20260510002030 | 83 | 5 | 1.0 | 4.0 | 0.00 | 0.00 | 0.00 | 46 | 1013.1 |
| 20260510001539 | 83 | 325 | 1.0 | 4.0 | 0.00 | 0.00 | 0.00 | 47 | 1013.2 |
| 20260510001031 | 83 | 9 | 1.0 | 3.0 | 0.00 | 0.00 | 0.00 | 47 | 1013.2 |
| 20260510000531 | 83 | 26 | 1.0 | 4.0 | 0.00 | 0.00 | 0.00 | 46 | 1013.4 |
| 20260510000040 | 83 | 9 | 2.0 | 5.0 | 0.00 | 0.00 | 0.00 | 45 | 1013.3 |
| 20260509235534 | 83 | 336 | 3.0 | 5.0 | 0.00 | 0.00 | 0.00 | 47 | 1013.4 |
| 20260509235029 | 83 | 15 | 1.0 | 4.0 | 0.00 | 0.00 | 0.00 | 47 | 1013.5 |
| 20260509234545 | 82 | 5 | 0.0 | 5.0 | 0.00 | 0.00 | 0.00 | 51 | 1013.5 |
| 20260509234031 | 82 | 160 | 2.0 | 5.0 | 0.00 | 0.00 | 0.00 | 49 | 1013.6 |
| 20260509233529 | 82 | 178 | 2.0 | 5.0 | 0.00 | 0.00 | 0.00 | 49 | 1013.5 |
| 20260509233035 | 82 | 35 | 1.0 | 5.0 | 0.00 | 0.00 | 0.00 | 52 | 1013.6 |
| 20260509232529 | 82 | 304 | 2.0 | 5.0 | 0.00 | 0.00 | 0.00 | 50 | 1013.5 |
| 20260509232029 | 82 | 114 | 1.0 | 5.0 | 0.00 | 0.00 | 0.00 | 50 | 1013.6 |
| 20260509231536 | 82 | 319 | 1.0 | 7.0 | 0.00 | 0.00 | 0.00 | 51 | 1013.8 |
| 20260509231029 | 81 | 180 | 2.0 | 7.0 | 0.00 | 0.00 | 0.00 | 51 | 1013.7 |
| 20260509230530 | 83 | 153 | 2.0 | 6.0 | 0.00 | 0.00 | 0.00 | 48 | 1013.9 |
| 20260509230042 | 82 | 40 | 3.0 | 6.0 | 0.00 | 0.00 | 0.00 | 50 | 1013.9 |
| 20260509225528 | 82 | 135 | 2.0 | 6.0 | 0.00 | 0.00 | 0.00 | 50 | 1013.8 |
| 20260509225029 | 83 | 11 | 1.0 | 8.0 | 0.00 | 0.00 | 0.00 | 47 | 1013.9 |
| 20260509224540 | 83 | 21 | 3.0 | 8.0 | 0.00 | 0.00 | 0.00 | 49 | 1014.0 |
| 20260509224029 | 83 | 326 | 2.0 | 7.0 | 0.00 | 0.00 | 0.00 | 50 | 1014.0 |
| 20260509223531 | 83 | 41 | 3.0 | 7.0 | 0.00 | 0.00 | 0.00 | 49 | 1014.1 |
| 20260509223038 | 82 | 22 | 2.0 | 6.0 | 0.00 | 0.00 | 0.00 | 49 | 1014.1 |
| 20260509222528 | 82 | 311 | 2.0 | 4.0 | 0.00 | 0.00 | 0.00 | 49 | 1014.2 |
| 20260509222028 | 81 | 307 | 1.0 | 6.0 | 0.00 | 0.00 | 0.00 | 48 | 1014.2 |
| 20260509221538 | 81 | 163 | 1.0 | 8.0 | 0.00 | 0.00 | 0.00 | 52 | 1014.2 |
| 20260509221030 | 82 | 140 | 4.0 | 8.0 | 0.00 | 0.00 | 0.00 | 51 | 1014.2 |
| 20260509220529 | 81 | 330 | 2.0 | 5.0 | 0.00 | 0.00 | 0.00 | 50 | 1014.2 |
| 20260509220042 | 81 | 167 | 2.0 | 8.0 | 0.00 | 0.00 | 0.00 | 49 | 1014.2 |
| 20260509215529 | 82 | 325 | 1.0 | 8.0 | 0.00 | 0.00 | 0.00 | 50 | 1014.3 |
| 20260509215029 | 82 | 352 | 4.0 | 8.0 | 0.00 | 0.00 | 0.00 | 50 | 1014.3 |
| 20260509214536 | 81 | 0 | 2.0 | 8.0 | 0.00 | 0.00 | 0.00 | 51 | 1014.4 |
| 20260509214031 | 80 | 340 | 2.0 | 6.0 | 0.00 | 0.00 | 0.00 | 52 | 1014.5 |
| 20260509213529 | 81 | 176 | 2.0 | 6.0 | 0.00 | 0.00 | 0.00 | 49 | 1014.4 |
| 20260509213042 | 82 | 40 | 1.0 | 8.0 | 0.00 | 0.00 | 0.00 | 50 | 1014.5 |
| 20260509212527 | 81 | 323 | 3.0 | 8.0 | 0.00 | 0.00 | 0.00 | 51 | 1014.6 |
| 20260509212030 | 80 | 5 | 3.0 | 7.0 | 0.00 | 0.00 | 0.00 | 53 | 1014.6 |
| 20260509211539 | 80 | 146 | 2.0 | 7.0 | 0.00 | 0.00 | 0.00 | 52 | 1014.7 |
| 20260509211029 | 80 | 166 | 2.0 | 8.0 | 0.00 | 0.00 | 0.00 | 52 | 1014.7 |
| 20260509210530 | 80 | 175 | 3.0 | 8.0 | 0.00 | 0.00 | 0.00 | 49 | 1014.6 |
| 20260509210045 | 80 | 340 | 2.0 | 9.0 | 0.00 | 0.00 | 0.00 | 54 | 1014.6 |
| 20260509205531 | 79 | 336 | 2.0 | 9.0 | 0.00 | 0.00 | 0.00 | 55 | 1014.6 |
| 20260509205027 | 81 | 327 | 5.0 | 9.0 | 0.00 | 0.00 | 0.00 | 51 | 1014.7 |
| 20260509204537 | 81 | 13 | 2.0 | 9.0 | 0.00 | 0.00 | 0.00 | 52 | 1014.7 |
| 20260509204029 | 80 | 329 | 3.0 | 9.0 | 0.00 | 0.00 | 0.00 | 53 | 1014.7 |
| 20260509203531 | 79 | 352 | 2.0 | 6.0 | 0.00 | 0.00 | 0.00 | 53 | 1014.7 |
| 20260509203043 | 78 | 86 | 1.0 | 6.0 | 0.00 | 0.00 | 0.00 | 59 | 1014.8 |
| 20260509202533 | 78 | 147 | 2.0 | 4.0 | 0.00 | 0.00 | 0.00 | 56 | 1014.7 |
| 20260509202029 | 77 | 59 | 1.0 | 7.0 | 0.00 | 0.00 | 0.00 | 57 | 1014.8 |
| 20260509201543 | 77 | 0 | 2.0 | 8.0 | 0.00 | 0.00 | 0.00 | 58 | 1014.7 |
| 20260509201030 | 76 | 184 | 3.0 | 8.0 | 0.00 | 0.00 | 0.00 | 58 | 1014.8 |
| 20260509200530 | 77 | 133 | 2.0 | 7.0 | 0.00 | 0.00 | 0.00 | 58 | 1014.9 |
| 20260509200045 | 78 | 151 | 3.0 | 6.0 | 0.00 | 0.00 | 0.00 | 56 | 1014.9 |
| 20260509195530 | 79 | 74 | 2.0 | 5.0 | 0.00 | 0.00 | 0.00 | 56 | 1014.9 |
| 20260509195030 | 79 | 129 | 2.0 | 5.0 | 0.00 | 0.00 | 0.00 | 57 | 1014.9 |
| 20260509194548 | 78 | 38 | 1.0 | 5.0 | 0.00 | 0.00 | 0.00 | 56 | 1014.9 |
| 20260509194031 | 77 | 324 | 2.0 | 5.0 | 0.00 | 0.00 | 0.00 | 56 | 1015.0 |
| 20260509193530 | 77 | 147 | 1.0 | 7.0 | 0.00 | 0.00 | 0.00 | 60 | 1015.0 |
| 20260509193040 | 76 | 24 | 2.0 | 7.0 | 0.00 | 0.00 | 0.00 | 60 | 1015.1 |
| 20260509192530 | 75 | 140 | 2.0 | 7.0 | 0.00 | 0.00 | 0.00 | 61 | 1015.0 |
| 20260509192032 | 75 | 143 | 2.0 | 6.0 | 0.00 | 0.00 | 0.00 | 60 | 1015.2 |
| 20260509191538 | 76 | 89 | 2.0 | 6.0 | 0.00 | 0.00 | 0.00 | 60 | 1015.2 |
| 20260509191036 | 77 | 144 | 2.0 | 6.0 | 0.00 | 0.00 | 0.00 | 57 | 1015.2 |
| 20260509190530 | 76 | 248 | 1.0 | 5.0 | 0.00 | 0.00 | 0.00 | 57 | 1015.2 |
| 20260509190038 | 76 | 9 | 1.0 | 5.0 | 0.00 | 0.00 | 0.00 | 59 | 1015.4 |
| 20260509185531 | 75 | 90 | 0.0 | 5.0 | 0.00 | 0.00 | 0.00 | 61 | 1015.4 |
| 20260509185031 | 75 | 143 | 1.0 | 5.0 | 0.00 | 0.00 | 0.00 | 60 | 1015.4 |
| 20260509184538 | 75 | 131 | 1.0 | 5.0 | 0.00 | 0.00 | 0.00 | 60 | 1015.4 |
| 20260509184030 | 74 | 0 | 1.0 | 8.0 | 0.00 | 0.00 | 0.00 | 63 | 1015.5 |
| 20260509183531 | 74 | 178 | 3.0 | 8.0 | 0.00 | 0.00 | 0.00 | 61 | 1015.6 |
| 20260509183057 | 75 | 144 | 1.0 | 6.0 | 0.00 | 0.00 | 0.00 | 59 | 1015.5 |
| 20260509182530 | 75 | 0 | 1.0 | 5.0 | 0.00 | 0.00 | 0.00 | 60 | 1015.5 |
| 20260509182028 | 74 | 350 | 2.0 | 5.0 | 0.00 | 0.00 | 0.00 | 62 | 1015.5 |
| 20260509181536 | 73 | 351 | 1.0 | 4.0 | 0.00 | 0.00 | 0.00 | 64 | 1015.5 |
| 20260509181028 | 72 | 144 | 1.0 | 5.0 | 0.00 | 0.00 | 0.00 | 63 | 1015.5 |
| 20260509180530 | 72 | 213 | 2.0 | 6.0 | 0.00 | 0.00 | 0.00 | 63 | 1015.6 |
| 20260509180042 | 72 | 140 | 2.0 | 6.0 | 0.00 | 0.00 | 0.00 | 65 | 1015.6 |
| 20260509175531 | 72 | 182 | 3.0 | 6.0 | 0.00 | 0.00 | 0.00 | 64 | 1015.6 |
| 20260509175029 | 72 | 327 | 1.0 | 5.0 | 0.00 | 0.00 | 0.00 | 65 | 1015.4 |
| 20260509174548 | 72 | 144 | 1.0 | 5.0 | 0.00 | 0.00 | 0.00 | 66 | 1015.5 |
| 20260509174030 | 72 | 102 | 1.0 | 5.0 | 0.00 | 0.00 | 0.00 | 66 | 1015.5 |
| 20260509173530 | 71 | 196 | 1.0 | 7.0 | 0.00 | 0.00 | 0.00 | 66 | 1015.5 |
| 20260509173042 | 71 | 145 | 1.0 | 7.0 | 0.00 | 0.00 | 0.00 | 66 | 1015.4 |
| 20260509172531 | 71 | 146 | 1.0 | 7.0 | 0.00 | 0.00 | 0.00 | 65 | 1015.4 |
| 20260509172031 | 71 | 155 | 2.0 | 7.0 | 0.00 | 0.00 | 0.00 | 66 | 1015.5 |
| 20260509171544 | 71 | 0 | 0.0 | 5.0 | 0.00 | 0.00 | 0.00 | 67 | 1015.4 |
| 20260509171031 | 71 | 168 | 2.0 | 5.0 | 0.00 | 0.00 | 0.00 | 63 | 1015.4 |
| 20260509170529 | 71 | 0 | 1.0 | 4.0 | 0.00 | 0.00 | 0.00 | 67 | 1015.4 |
| 20260509170039 | 70 | 0 | 1.0 | 4.0 | 0.00 | 0.00 | 0.00 | 67 | 1015.3 |
| 20260509165532 | 70 | 76 | 0.0 | 4.0 | 0.00 | 0.00 | 0.00 | 68 | 1015.3 |
| 20260509165031 | 70 | 157 | 1.0 | 4.0 | 0.00 | 0.00 | 0.00 | 67 | 1015.3 |
| 20260509164536 | 70 | 132 | 2.0 | 4.0 | 0.00 | 0.00 | 0.00 | 67 | 1015.3 |
| 20260509164030 | 69 | 60 | 1.0 | 4.0 | 0.00 | 0.00 | 0.00 | 66 | 1015.3 |
| 20260509163535 | 69 | 147 | 1.0 | 4.0 | 0.00 | 0.00 | 0.00 | 65 | 1015.3 |
| 20260509163046 | 69 | 89 | 0.0 | 3.0 | 0.00 | 0.00 | 0.00 | 68 | 1015.3 |
| 20260509162532 | 68 | 329 | 1.0 | 5.0 | 0.00 | 0.00 | 0.00 | 70 | 1015.3 |
| 20260509162030 | 68 | 148 | 1.0 | 5.0 | 0.00 | 0.00 | 0.00 | 69 | 1015.4 |
| 20260509161544 | 68 | 35 | 1.0 | 4.0 | 0.00 | 0.00 | 0.00 | 69 | 1015.4 |
| 20260509161033 | 68 | 16 | 0.0 | 4.0 | 0.00 | 0.00 | 0.00 | 71 | 1015.4 |
| 20260509160530 | 67 | 0 | 1.0 | 4.0 | 0.00 | 0.00 | 0.00 | 70 | 1015.4 |
| 20260509160042 | 67 | 13 | 2.0 | 4.0 | 0.00 | 0.00 | 0.00 | 70 | 1015.4 |
| 20260509155532 | 67 | 333 | 2.0 | 4.0 | 0.00 | 0.00 | 0.00 | 69 | 1015.4 |
| 20260509155030 | 67 | 335 | 1.0 | 3.0 | 0.00 | 0.00 | 0.00 | 69 | 1015.3 |
| 20260509154537 | 66 | 309 | 0.0 | 1.0 | 0.00 | 0.00 | 0.00 | 69 | 1015.3 |
| 20260509154030 | 66 | 0 | 0.0 | 2.0 | 0.00 | 0.00 | 0.00 | 70 | 1015.3 |
| 20260509153530 | 66 | 0 | 0.0 | 2.0 | 0.00 | 0.00 | 0.00 | 71 | 1015.2 |
| 20260509153051 | 65 | 287 | 0.0 | 1.0 | 0.00 | 0.00 | 0.00 | 71 | 1015.3 |
| 20260509152531 | 65 | 0 | 0.0 | 1.0 | 0.00 | 0.00 | 0.00 | 71 | 1015.3 |
| 20260509152029 | 64 | 0 | 0.0 | 1.0 | 0.00 | 0.00 | 0.00 | 72 | 1015.3 |
| 20260509151544 | 64 | 301 | 0.0 | 2.0 | 0.00 | 0.00 | 0.00 | 72 | 1015.4 |
| 20260509151030 | 63 | 0 | 0.0 | 2.0 | 0.00 | 0.00 | 0.00 | 73 | 1015.4 |
| 20260509150531 | 63 | 257 | 0.0 | 2.0 | 0.00 | 0.00 | 0.00 | 73 | 1015.4 |
| 20260509150042 | 63 | 247 | 0.0 | 2.0 | 0.00 | 0.00 | 0.00 | 74 | 1015.4 |
| 20260509145530 | 62 | 0 | 0.0 | 2.0 | 0.00 | 0.00 | 0.00 | 74 | 1015.3 |
| 20260509145030 | 62 | 0 | 0.0 | 2.0 | 0.00 | 0.00 | 0.00 | 74 | 1015.4 |
| 20260509144540 | 61 | 0 | 0.0 | 1.0 | 0.00 | 0.00 | 0.00 | 75 | 1015.3 |
| 20260509144030 | 61 | 287 | 0.0 | 1.0 | 0.00 | 0.00 | 0.00 | 75 | 1015.3 |
| 20260509143530 | 60 | 0 | 0.0 | 2.0 | 0.00 | 0.00 | 0.00 | 75 | 1015.3 |
| 20260509143041 | 60 | 282 | 0.0 | 2.0 | 0.00 | 0.00 | 0.00 | 76 | 1015.3 |
| 20260509142528 | 60 | 262 | 0.0 | 1.0 | 0.00 | 0.00 | 0.00 | 77 | 1015.2 |
| 20260509142030 | 59 | 0 | 0.0 | 1.0 | 0.00 | 0.00 | 0.00 | 77 | 1015.2 |
| 20260509141537 | 59 | 0 | 0.0 | 1.0 | 0.00 | 0.00 | 0.00 | 78 | 1015.2 |
| 20260509141030 | 59 | 0 | 0.0 | 1.0 | 0.00 | 0.00 | 0.00 | 77 | 1015.2 |
| 20260509140529 | 58 | 271 | 0.0 | 1.0 | 0.00 | 0.00 | 0.00 | 78 | 1015.2 |
| 20260509140056 | 58 | 0 | 0.0 | 1.0 | 0.00 | 0.00 | 0.00 | 78 | 1015.2 |
| 20260509135531 | 58 | 0 | 0.0 | 1.0 | 0.00 | 0.00 | 0.00 | 78 | 1015.2 |
| 20260509135029 | 58 | 0 | 0.0 | 1.0 | 0.00 | 0.00 | 0.00 | 79 | 1015.1 |
| 20260509134539 | 58 | 231 | 0.0 | 1.0 | 0.00 | 0.00 | 0.00 | 78 | 1015.0 |
| 20260509134030 | 58 | 0 | 0.0 | 1.0 | 0.00 | 0.00 | 0.00 | 78 | 1015.1 |
| 20260509133530 | 57 | 238 | 0.0 | 1.0 | 0.00 | 0.00 | 0.00 | 79 | 1015.0 |
| 20260509133039 | 57 | 0 | 0.0 | 1.0 | 0.00 | 0.00 | 0.00 | 79 | 1015.1 |
| 20260509132532 | 57 | 0 | 0.0 | 1.0 | 0.00 | 0.00 | 0.00 | 79 | 1015.1 |
| 20260509132031 | 57 | 235 | 0.0 | 2.0 | 0.00 | 0.00 | 0.00 | 78 | 1015.1 |
| 20260509131536 | 57 | 0 | 0.0 | 2.0 | 0.00 | 0.00 | 0.00 | 77 | 1015.1 |
| 20260509131030 | 58 | 229 | 0.0 | 1.0 | 0.00 | 0.00 | 0.00 | 77 | 1015.1 |
| 20260509130530 | 58 | 0 | 0.0 | 1.0 | 0.00 | 0.00 | 0.00 | 77 | 1015.2 |
| 20260509130038 | 58 | 0 | 0.0 | 1.0 | 0.00 | 0.00 | 0.00 | 76 | 1015.0 |
| 20260509125531 | 58 | 0 | 0.0 | 1.0 | 0.00 | 0.00 | 0.00 | 77 | 1015.0 |
| 20260509125030 | 58 | 0 | 0.0 | 1.0 | 0.00 | 0.00 | 0.00 | 77 | 1015.0 |
| 20260509124533 | 58 | 0 | 0.0 | 2.0 | 0.00 | 0.00 | 0.00 | 77 | 1015.0 |
| 20260509124030 | 58 | 0 | 0.0 | 2.0 | 0.00 | 0.00 | 0.00 | 77 | 1015.0 |
| 20260509123530 | 58 | 246 | 0.0 | 2.0 | 0.00 | 0.00 | 0.00 | 77 | 1015.0 |
| 20260509123042 | 58 | 234 | 0.0 | 2.0 | 0.00 | 0.00 | 0.00 | 76 | 1015.1 |
| 20260509122531 | 59 | 235 | 0.0 | 2.0 | 0.00 | 0.00 | 0.00 | 76 | 1015.0 |
| 20260509122030 | 59 | 0 | 0.0 | 1.0 | 0.00 | 0.00 | 0.00 | 75 | 1014.9 |
| 20260509121537 | 59 | 0 | 0.0 | 1.0 | 0.00 | 0.00 | 0.00 | 75 | 1014.9 |
| 20260509121030 | 59 | 0 | 0.0 | 1.0 | 0.00 | 0.00 | 0.00 | 74 | 1014.9 |
| 20260509120530 | 59 | 0 | 0.0 | 1.0 | 0.00 | 0.00 | 0.00 | 75 | 1015.0 |
| 20260509120039 | 59 | 0 | 0.0 | 3.0 | 0.00 | 0.00 | 0.00 | 74 | 1015.0 |
| 20260509115530 | 59 | 0 | 0.0 | 3.0 | 0.00 | 0.00 | 0.00 | 74 | 1014.9 |
| 20260509115029 | 59 | 233 | 1.0 | 3.0 | 0.00 | 0.00 | 0.00 | 75 | 1014.9 |
| 20260509114536 | 59 | 236 | 0.0 | 2.0 | 0.00 | 0.00 | 0.00 | 76 | 1014.8 |
| 20260509114030 | 59 | 0 | 0.0 | 2.0 | 0.00 | 0.00 | 0.00 | 76 | 1014.8 |
| 20260509113532 | 59 | 234 | 0.0 | 2.0 | 0.00 | 0.00 | 0.00 | 76 | 1014.9 |
| 20260509113037 | 60 | 233 | 0.0 | 2.0 | 0.00 | 0.00 | 0.00 | 75 | 1014.7 |
| 20260509112530 | 60 | 0 | 0.0 | 2.0 | 0.00 | 0.00 | 0.00 | 75 | 1014.8 |
| 20260509112030 | 60 | 242 | 0.0 | 2.0 | 0.00 | 0.00 | 0.00 | 73 | 1014.9 |
| 20260509111542 | 61 | 243 | 1.0 | 2.0 | 0.00 | 0.00 | 0.00 | 73 | 1014.8 |
| 20260509111030 | 61 | 233 | 0.0 | 2.0 | 0.00 | 0.00 | 0.00 | 71 | 1014.8 |
| 20260509110531 | 61 | 0 | 0.0 | 3.0 | 0.00 | 0.00 | 0.00 | 72 | 1015.0 |
| 20260509110042 | 61 | 0 | 0.0 | 3.0 | 0.00 | 0.00 | 0.00 | 73 | 1014.8 |
| 20260509105531 | 61 | 232 | 1.0 | 3.0 | 0.00 | 0.00 | 0.00 | 73 | 1014.9 |
| 20260509105031 | 61 | 229 | 1.0 | 3.0 | 0.00 | 0.00 | 0.00 | 73 | 1014.9 |
| 20260509104540 | 61 | 236 | 1.0 | 2.0 | 0.00 | 0.00 | 0.00 | 74 | 1015.0 |
| 20260509104030 | 61 | 0 | 0.0 | 1.0 | 0.00 | 0.00 | 0.00 | 74 | 1014.9 |
| 20260509103530 | 61 | 239 | 0.0 | 2.0 | 0.00 | 0.00 | 0.00 | 74 | 1015.0 |
| 20260509103047 | 61 | 0 | 1.0 | 2.0 | 0.00 | 0.00 | 0.00 | 74 | 1015.0 |
| 20260509102530 | 61 | 240 | 0.0 | 3.0 | 0.00 | 0.00 | 0.00 | 73 | 1015.1 |
| 20260509102031 | 61 | 240 | 1.0 | 3.0 | 0.00 | 0.00 | 0.00 | 73 | 1015.2 |
| 20260509101538 | 61 | 244 | 1.0 | 3.0 | 0.00 | 0.00 | 0.00 | 73 | 1015.2 |
| 20260509101030 | 61 | 244 | 1.0 | 3.0 | 0.00 | 0.00 | 0.00 | 73 | 1015.2 |
| 20260509100529 | 61 | 238 | 1.0 | 2.0 | 0.00 | 0.00 | 0.00 | 73 | 1015.2 |
| 20260509100037 | 61 | 238 | 0.0 | 2.0 | 0.00 | 0.00 | 0.00 | 73 | 1015.2 |
| 20260509095528 | 61 | 238 | 1.0 | 2.0 | 0.00 | 0.00 | 0.00 | 74 | 1015.2 |
| 20260509095032 | 61 | 0 | 0.0 | 1.0 | 0.00 | 0.00 | 0.00 | 74 | 1015.2 |
| 20260509094546 | 61 | 0 | 0.0 | 1.0 | 0.00 | 0.00 | 0.00 | 75 | 1015.3 |
| 20260509094030 | 61 | 238 | 0.0 | 2.0 | 0.00 | 0.00 | 0.00 | 75 | 1015.2 |
| 20260509093530 | 61 | 0 | 0.0 | 2.0 | 0.00 | 0.00 | 0.00 | 74 | 1015.3 |
| 20260509093043 | 61 | 242 | 1.0 | 2.0 | 0.00 | 0.00 | 0.00 | 73 | 1015.4 |
| 20260509092530 | 62 | 245 | 1.0 | 2.0 | 0.00 | 0.00 | 0.00 | 72 | 1015.5 |
| 20260509092033 | 62 | 238 | 0.0 | 2.0 | 0.00 | 0.00 | 0.00 | 72 | 1015.5 |
| 20260509091538 | 62 | 0 | 0.0 | 2.0 | 0.00 | 0.00 | 0.00 | 71 | 1015.4 |
| 20260509091030 | 62 | 238 | 0.0 | 2.0 | 0.00 | 0.00 | 0.00 | 71 | 1015.5 |
| 20260509090529 | 62 | 238 | 1.0 | 2.0 | 0.00 | 0.00 | 0.00 | 72 | 1015.5 |
| 20260509090047 | 62 | 238 | 0.0 | 2.0 | 0.00 | 0.00 | 0.00 | 73 | 1015.4 |
| 20260509085530 | 62 | 238 | 0.0 | 2.0 | 0.00 | 0.00 | 0.00 | 74 | 1015.5 |
| 20260509085030 | 62 | 0 | 0.0 | 2.0 | 0.00 | 0.00 | 0.00 | 74 | 1015.5 |
| 20260509084536 | 62 | 245 | 0.0 | 2.0 | 0.00 | 0.00 | 0.00 | 74 | 1015.5 |
| 20260509084029 | 62 | 245 | 0.0 | 2.0 | 0.00 | 0.00 | 0.00 | 75 | 1015.5 |
| 20260509083531 | 62 | 0 | 0.0 | 2.0 | 0.00 | 0.00 | 0.00 | 75 | 1015.6 |
| 20260509083043 | 62 | 0 | 0.0 | 1.0 | 0.00 | 0.00 | 0.00 | 75 | 1015.6 |
| 20260509082529 | 62 | 0 | 0.0 | 1.0 | 0.00 | 0.00 | 0.00 | 74 | 1015.6 |
| 20260509082032 | 63 | 0 | 0.0 | 1.0 | 0.00 | 0.00 | 0.00 | 73 | 1015.6 |
| 20260509081537 | 63 | 0 | 0.0 | 0.0 | 0.00 | 0.00 | 0.00 | 72 | 1015.7 |
| 20260509081030 | 64 | 0 | 0.0 | 0.0 | 0.00 | 0.00 | 0.00 | 72 | 1015.8 |
| 20260509080529 | 64 | 0 | 0.0 | 0.0 | 0.00 | 0.00 | 0.00 | 71 | 1015.8 |
| 20260509080034 | 64 | 0 | 0.0 | 2.0 | 0.00 | 0.00 | 0.00 | 71 | 1015.8 |
| 20260509075530 | 64 | 0 | 0.0 | 2.0 | 0.00 | 0.00 | 0.00 | 71 | 1015.8 |
| 20260509075029 | 64 | 223 | 0.0 | 2.0 | 0.00 | 0.00 | 0.00 | 71 | 1015.9 |
| 20260509074535 | 65 | 0 | 0.0 | 1.0 | 0.00 | 0.00 | 0.00 | 71 | 1015.9 |